owner,sensor,date,latitude,longitude,vertical_datum,wind_speed,wind_to_direction,wind_speed_of_gust,qcFlag 
NDBC,ioos:station:wmo:42035:1,2014-05-01T00:50:00Z,29.2320,-94.4130,5.0,8.0,350.0,10.0,'1111122,1111122,1111122' 
NDBC,ioos:station:wmo:42035:1,2014-05-01T01:50:00Z,29.2320,-94.4130,5.0,7.0,350.0,9.0,'1111122,1111122,1111122' 
NDBC,ioos:station:wmo:42035:1,2014-05-01T02:50:00Z,29.2320,-94.4130,5.0,8.0,360.0,9.0,'1111122,1111122,1111122' 
NDBC,ioos:station:wmo:42035:1,2014-05-01T03:50:00Z,29.2320,-94.4130,5.0,10.0,350.0,12.0,'1111122,1111122,1111122' 
NDBC,ioos:station:wmo:42035:1,2014-05-01T04:50:00Z,29.2320,-94.4130,5.0,10.0,10.0,11.0,'1111122,1111122,1111122' 
NDBC,ioos:station:wmo:42035:1,2014-05-01T06:50:00Z,29.2320,-94.4130,5.0,9.0,30.0,11.0,'1111122,1111122,1111122' 
NDBC,ioos:station:wmo:42035:1,2014-05-01T07:50:00Z,29.2320,-94.4130,5.0,9.0,30.0,11.0,'1111122,1111122,1111122' 
NDBC,ioos:station:wmo:42035:1,2014-05-01T08:50:00Z,29.2320,-94.4130,5.0,8.0,30.0,9.0,'1111122,1111122,1111122' 
NDBC,ioos:station:wmo:42035:1,2014-05-01T09:50:00Z,29.2320,-94.4130,5.0,9.0,20.0,11.0,'1111122,1111122,1111122' 
NDBC,ioos:station:wmo:42035:1,2014-05-01T10:50:00Z,29.2320,-94.4130,5.0,8.0,30.0,11.0,'1111122,1111122,1111122' 
NDBC,ioos:station:wmo:42035:1,2014-05-01T11:50:00Z,29.2320,-94.4130,5.0,8.0,30.0,9.0,'1111122,1111122,1111122' 
NDBC,ioos:station:wmo:42035:1,2014-05-01T12:50:00Z,29.2320,-94.4130,5.0,7.0,40.0,9.0,'1111122,1111122,1111122' 
NDBC,ioos:station:wmo:42035:1,2014-05-01T13:50:00Z,29.2320,-94.4130,5.0,7.0,40.0,9.0,'1111122,1111122,1111122' 
NDBC,ioos:station:wmo:42035:1,2014-05-01T14:50:00Z,29.2320,-94.4130,5.0,7.0,30.0,8.0,'1111122,1111122,1111122' 
NDBC,ioos:station:wmo:42035:1,2014-05-01T15:50:00Z,29.2320,-94.4130,5.0,7.0,40.0,9.0,'1111122,1111122,1111122' 
NDBC,ioos:station:wmo:42035:1,2014-05-01T16:50:00Z,29.2320,-94.4130,5.0,5.0,40.0,7.0,'1111122,1111122,1111122' 
NDBC,ioos:station:wmo:42035:1,2014-05-01T17:50:00Z,29.2320,-94.4130,5.0,6.0,40.0,7.0,'1111122,1111122,1111122' 
NDBC,ioos:station:wmo:42035:1,2014-05-01T18:50:00Z,29.2320,-94.4130,5.0,5.0,50.0,6.0,'1111122,1111122,1111122' 
NDBC,ioos:station:wmo:42035:1,2014-05-01T19:50:00Z,29.2320,-94.4130,5.0,2.0,90.0,3.0,'1111122,1111122,1111122' 
NDBC,ioos:station:wmo:42035:1,2014-05-01T20:50:00Z,29.2320,-94.4130,5.0,1.0,150.0,2.0,'1111122,1111122,1111122' 
NDBC,ioos:station:wmo:42035:1,2014-05-01T21:50:00Z,29.2320,-94.4130,5.0,1.0,140.0,3.0,'1111122,1111122,1111122' 
NDBC,ioos:station:wmo:42035:1,2014-05-01T22:50:00Z,29.2320,-94.4130,5.0,3.0,340.0,4.0,'1111122,1111122,1111122' 
NDBC,ioos:station:wmo:42035:1,2014-05-01T23:50:00Z,29.2320,-94.4130,5.0,4.0,20.0,6.0,'1111122,1111122,1111122' 
NDBC,ioos:station:wmo:42035:1,2014-05-02T00:50:00Z,29.2320,-94.4130,5.0,2.0,20.0,3.0,'1111122,1111122,1111122' 
NDBC,ioos:station:wmo:42035:1,2014-05-02T01:50:00Z,29.2320,-94.4130,5.0,2.0,10.0,3.0,'1111122,1111122,1111122' 
NDBC,ioos:station:wmo:42035:1,2014-05-02T02:50:00Z,29.2320,-94.4130,5.0,1.0,30.0,2.0,'1111122,1111122,1111122' 
NDBC,ioos:station:wmo:42035:1,2014-05-02T03:50:00Z,29.2320,-94.4130,5.0,2.0,360.0,2.0,'1111122,1111122,1111122' 
NDBC,ioos:station:wmo:42035:1,2014-05-02T04:50:00Z,29.2320,-94.4130,5.0,2.0,360.0,3.0,'1111122,1111122,1111122' 
NDBC,ioos:station:wmo:42035:1,2014-05-02T05:50:00Z,29.2320,-94.4130,5.0,2.0,350.0,3.0,'1111122,1111122,1111122' 
NDBC,ioos:station:wmo:42035:1,2014-05-02T06:50:00Z,29.2320,-94.4130,5.0,3.0,10.0,4.0,'1111122,1111122,1111122' 
NDBC,ioos:station:wmo:42035:1,2014-05-02T07:50:00Z,29.2320,-94.4130,5.0,2.0,10.0,3.0,'1111122,1111122,1111122' 
NDBC,ioos:station:wmo:42035:1,2014-05-02T08:50:00Z,29.2320,-94.4130,5.0,1.0,340.0,2.0,'1111122,1111122,1111122' 
NDBC,ioos:station:wmo:42035:1,2014-05-02T09:50:00Z,29.2320,-94.4130,5.0,2.0,310.0,3.0,'1111122,1111122,1111122' 
NDBC,ioos:station:wmo:42035:1,2014-05-02T10:50:00Z,29.2320,-94.4130,5.0,4.0,310.0,5.0,'1111122,1111122,1111122' 
NDBC,ioos:station:wmo:42035:1,2014-05-02T11:50:00Z,29.2320,-94.4130,5.0,5.0,320.0,6.0,'1111122,1111122,1111122' 
NDBC,ioos:station:wmo:42035:1,2014-05-02T12:50:00Z,29.2320,-94.4130,5.0,7.0,300.0,8.0,'1111122,1111122,1111122' 
NDBC,ioos:station:wmo:42035:1,2014-05-02T13:50:00Z,29.2320,-94.4130,5.0,7.0,310.0,8.0,'1111122,1111122,1111122' 
NDBC,ioos:station:wmo:42035:1,2014-05-02T14:50:00Z,29.2320,-94.4130,5.0,7.0,300.0,9.0,'1111122,1111122,1111122' 
NDBC,ioos:station:wmo:42035:1,2014-05-02T15:50:00Z,29.2320,-94.4130,5.0,6.0,320.0,7.0,'1111122,1111122,1111122' 
NDBC,ioos:station:wmo:42035:1,2014-05-02T16:50:00Z,29.2320,-94.4130,5.0,6.0,330.0,8.0,'1111122,1111122,1111122' 
NDBC,ioos:station:wmo:42035:1,2014-05-02T17:50:00Z,29.2320,-94.4130,5.0,5.0,320.0,7.0,'1111122,1111122,1111122' 
NDBC,ioos:station:wmo:42035:1,2014-05-02T18:50:00Z,29.2320,-94.4130,5.0,4.0,310.0,5.0,'1111122,1111122,1111122' 
NDBC,ioos:station:wmo:42035:1,2014-05-02T19:50:00Z,29.2320,-94.4130,5.0,3.0,310.0,4.0,'1111122,1111122,1111122' 
NDBC,ioos:station:wmo:42035:1,2014-05-02T20:50:00Z,29.2320,-94.4130,5.0,2.0,280.0,3.0,'1111122,1111122,1111122' 
NDBC,ioos:station:wmo:42035:1,2014-05-02T21:50:00Z,29.2320,-94.4130,5.0,3.0,210.0,4.0,'1111122,1111122,1111122' 
NDBC,ioos:station:wmo:42035:1,2014-05-02T22:50:00Z,29.2320,-94.4130,5.0,5.0,220.0,6.0,'1111122,1111122,1111122' 
NDBC,ioos:station:wmo:42035:1,2014-05-02T23:50:00Z,29.2320,-94.4130,5.0,6.0,230.0,7.0,'1111122,1111122,1111122' 
NDBC,ioos:station:wmo:42035:1,2014-05-03T00:50:00Z,29.2320,-94.4130,5.0,7.0,220.0,8.0,'1111122,1111122,1111122' 
NDBC,ioos:station:wmo:42035:1,2014-05-03T01:50:00Z,29.2320,-94.4130,5.0,7.0,220.0,8.0,'1111122,1111122,1111122' 
NDBC,ioos:station:wmo:42035:1,2014-05-03T02:50:00Z,29.2320,-94.4130,5.0,7.0,220.0,8.0,'1111122,1111122,1111122' 
NDBC,ioos:station:wmo:42035:1,2014-05-03T03:50:00Z,29.2320,-94.4130,5.0,7.0,220.0,8.0,'1111122,1111122,1111122' 
NDBC,ioos:station:wmo:42035:1,2014-05-03T04:50:00Z,29.2320,-94.4130,5.0,6.0,210.0,7.0,'1111122,1111122,1111122' 
NDBC,ioos:station:wmo:42035:1,2014-05-03T05:50:00Z,29.2320,-94.4130,5.0,6.0,210.0,7.0,'1111122,1111122,1111122' 
NDBC,ioos:station:wmo:42035:1,2014-05-03T06:50:00Z,29.2320,-94.4130,5.0,7.0,220.0,8.0,'1111122,1111122,1111122' 
NDBC,ioos:station:wmo:42035:1,2014-05-03T08:50:00Z,29.2320,-94.4130,5.0,7.0,230.0,8.0,'1111122,1111122,1111122' 
NDBC,ioos:station:wmo:42035:1,2014-05-03T09:50:00Z,29.2320,-94.4130,5.0,7.0,220.0,8.0,'1111122,1111122,1111122' 
NDBC,ioos:station:wmo:42035:1,2014-05-03T10:50:00Z,29.2320,-94.4130,5.0,7.0,220.0,8.0,'1111122,1111122,1111122' 
NDBC,ioos:station:wmo:42035:1,2014-05-03T11:50:00Z,29.2320,-94.4130,5.0,7.0,230.0,8.0,'1111122,1111122,1111122' 
NDBC,ioos:station:wmo:42035:1,2014-05-03T12:50:00Z,29.2320,-94.4130,5.0,7.0,230.0,9.0,'1111122,1111122,1111122' 
NDBC,ioos:station:wmo:42035:1,2014-05-03T13:50:00Z,29.2320,-94.4130,5.0,8.0,230.0,9.0,'1111122,1111122,1111122' 
NDBC,ioos:station:wmo:42035:1,2014-05-03T14:50:00Z,29.2320,-94.4130,5.0,8.0,240.0,9.0,'1111122,1111122,1111122' 
NDBC,ioos:station:wmo:42035:1,2014-05-03T15:50:00Z,29.2320,-94.4130,5.0,8.0,240.0,10.0,'1111122,1111122,1111122' 
NDBC,ioos:station:wmo:42035:1,2014-05-03T16:50:00Z,29.2320,-94.4130,5.0,8.0,240.0,10.0,'1111122,1111122,1111122' 
NDBC,ioos:station:wmo:42035:1,2014-05-03T17:50:00Z,29.2320,-94.4130,5.0,8.0,230.0,10.0,'1111122,1111122,1111122' 
NDBC,ioos:station:wmo:42035:1,2014-05-03T18:50:00Z,29.2320,-94.4130,5.0,9.0,230.0,10.0,'1111122,1111122,1111122' 
NDBC,ioos:station:wmo:42035:1,2014-05-03T19:50:00Z,29.2320,-94.4130,5.0,9.0,220.0,11.0,'1111122,1111122,1111122' 
NDBC,ioos:station:wmo:42035:1,2014-05-03T20:50:00Z,29.2320,-94.4130,5.0,9.0,220.0,10.0,'1111122,1111122,1111122' 
NDBC,ioos:station:wmo:42035:1,2014-05-03T21:50:00Z,29.2320,-94.4130,5.0,9.0,210.0,11.0,'1111122,1111122,1111122' 
NDBC,ioos:station:wmo:42035:1,2014-05-03T22:50:00Z,29.2320,-94.4130,5.0,9.0,210.0,10.0,'1111122,1111122,1111122' 
NDBC,ioos:station:wmo:42035:1,2014-05-03T23:50:00Z,29.2320,-94.4130,5.0,9.0,200.0,10.0,'1111122,1111122,1111122' 
NDBC,ioos:station:wmo:42035:1,2014-05-04T00:50:00Z,29.2320,-94.4130,5.0,8.0,210.0,9.0,'1111122,1111122,1111122' 
NDBC,ioos:station:wmo:42035:1,2014-05-04T01:50:00Z,29.2320,-94.4130,5.0,8.0,200.0,9.0,'1111122,1111122,1111122' 
NDBC,ioos:station:wmo:42035:1,2014-05-04T02:50:00Z,29.2320,-94.4130,5.0,8.0,210.0,10.0,'1111122,1111122,1111122' 
NDBC,ioos:station:wmo:42035:1,2014-05-04T03:50:00Z,29.2320,-94.4130,5.0,8.0,210.0,9.0,'1111122,1111122,1111122' 
NDBC,ioos:station:wmo:42035:1,2014-05-04T04:50:00Z,29.2320,-94.4130,5.0,8.0,210.0,9.0,'1111122,1111122,1111122' 
NDBC,ioos:station:wmo:42035:1,2014-05-04T06:50:00Z,29.2320,-94.4130,5.0,7.0,210.0,8.0,'1111122,1111122,1111122' 
NDBC,ioos:station:wmo:42035:1,2014-05-04T07:50:00Z,29.2320,-94.4130,5.0,7.0,210.0,8.0,'1111122,1111122,1111122' 
NDBC,ioos:station:wmo:42035:1,2014-05-04T08:50:00Z,29.2320,-94.4130,5.0,8.0,210.0,9.0,'1111122,1111122,1111122' 
NDBC,ioos:station:wmo:42035:1,2014-05-04T09:50:00Z,29.2320,-94.4130,5.0,8.0,210.0,9.0,'1111122,1111122,1111122' 
NDBC,ioos:station:wmo:42035:1,2014-05-04T10:50:00Z,29.2320,-94.4130,5.0,8.0,220.0,9.0,'1111122,1111122,1111122' 
NDBC,ioos:station:wmo:42035:1,2014-05-04T11:50:00Z,29.2320,-94.4130,5.0,7.0,220.0,9.0,'1111122,1111122,1111122' 
NDBC,ioos:station:wmo:42035:1,2014-05-04T12:50:00Z,29.2320,-94.4130,5.0,7.0,220.0,8.0,'1111122,1111122,1111122' 
NDBC,ioos:station:wmo:42035:1,2014-05-04T13:50:00Z,29.2320,-94.4130,5.0,7.0,230.0,8.0,'1111122,1111122,1111122' 
NDBC,ioos:station:wmo:42035:1,2014-05-04T14:50:00Z,29.2320,-94.4130,5.0,6.0,220.0,8.0,'1111122,1111122,1111122' 
NDBC,ioos:station:wmo:42035:1,2014-05-04T15:50:00Z,29.2320,-94.4130,5.0,6.0,220.0,7.0,'1111122,1111122,1111122' 
NDBC,ioos:station:wmo:42035:1,2014-05-04T16:50:00Z,29.2320,-94.4130,5.0,6.0,210.0,7.0,'1111122,1111122,1111122' 
NDBC,ioos:station:wmo:42035:1,2014-05-04T17:50:00Z,29.2320,-94.4130,5.0,6.0,210.0,7.0,'1111122,1111122,1111122' 
NDBC,ioos:station:wmo:42035:1,2014-05-04T18:50:00Z,29.2320,-94.4130,5.0,7.0,210.0,8.0,'1111122,1111122,1111122' 
NDBC,ioos:station:wmo:42035:1,2014-05-04T19:50:00Z,29.2320,-94.4130,5.0,7.0,220.0,8.0,'1111122,1111122,1111122' 
NDBC,ioos:station:wmo:42035:1,2014-05-04T20:50:00Z,29.2320,-94.4130,5.0,7.0,220.0,9.0,'1111122,1111122,1111122' 
NDBC,ioos:station:wmo:42035:1,2014-05-04T21:50:00Z,29.2320,-94.4130,5.0,7.0,220.0,8.0,'1111122,1111122,1111122' 
NDBC,ioos:station:wmo:42035:1,2014-05-04T22:50:00Z,29.2320,-94.4130,5.0,6.0,220.0,8.0,'1111122,1111122,1111122' 
NDBC,ioos:station:wmo:42035:1,2014-05-04T23:50:00Z,29.2320,-94.4130,5.0,6.0,220.0,7.0,'1111122,1111122,1111122' 
NDBC,ioos:station:wmo:42035:1,2014-05-05T00:50:00Z,29.2320,-94.4130,5.0,6.0,210.0,6.0,'1111122,1111122,1111122' 
NDBC,ioos:station:wmo:42035:1,2014-05-05T01:50:00Z,29.2320,-94.4130,5.0,6.0,200.0,6.0,'1111122,1111122,1111122' 
NDBC,ioos:station:wmo:42035:1,2014-05-05T02:50:00Z,29.2320,-94.4130,5.0,5.0,190.0,6.0,'1111122,1111122,1111122' 
NDBC,ioos:station:wmo:42035:1,2014-05-05T03:50:00Z,29.2320,-94.4130,5.0,6.0,190.0,6.0,'1111122,1111122,1111122' 
NDBC,ioos:station:wmo:42035:1,2014-05-05T04:50:00Z,29.2320,-94.4130,5.0,6.0,190.0,-9999.0,'1111122,1111122,1111122' 
NDBC,ioos:station:wmo:42035:1,2014-05-05T06:50:00Z,29.2320,-94.4130,5.0,6.0,180.0,7.0,'1111122,1111122,1111122' 
NDBC,ioos:station:wmo:42035:1,2014-05-05T07:50:00Z,29.2320,-94.4130,5.0,7.0,180.0,8.0,'1111122,1111122,1111122' 
NDBC,ioos:station:wmo:42035:1,2014-05-05T08:50:00Z,29.2320,-94.4130,5.0,7.0,180.0,-9999.0,'1111122,1111122,1111122' 
NDBC,ioos:station:wmo:42035:1,2014-05-05T09:50:00Z,29.2320,-94.4130,5.0,8.0,180.0,9.0,'1111122,1111122,1111122' 
NDBC,ioos:station:wmo:42035:1,2014-05-05T10:50:00Z,29.2320,-94.4130,5.0,8.0,190.0,9.0,'1111122,1111122,1111122' 
NDBC,ioos:station:wmo:42035:1,2014-05-05T11:50:00Z,29.2320,-94.4130,5.0,9.0,190.0,-9999.0,'1111122,1111122,1111122' 
NDBC,ioos:station:wmo:42035:1,2014-05-05T12:50:00Z,29.2320,-94.4130,5.0,8.0,190.0,9.0,'1111122,1111122,1111122' 
NDBC,ioos:station:wmo:42035:1,2014-05-05T13:50:00Z,29.2320,-94.4130,5.0,9.0,190.0,11.0,'1111122,1111122,1111122' 
NDBC,ioos:station:wmo:42035:1,2014-05-05T14:50:00Z,29.2320,-94.4130,5.0,9.0,190.0,10.0,'1111122,1111122,1111122' 
NDBC,ioos:station:wmo:42035:1,2014-05-05T15:50:00Z,29.2320,-94.4130,5.0,8.0,190.0,10.0,'1111122,1111122,1111122' 
NDBC,ioos:station:wmo:42035:1,2014-05-05T16:50:00Z,29.2320,-94.4130,5.0,7.0,200.0,-9999.0,'1111122,1111122,1111122' 
NDBC,ioos:station:wmo:42035:1,2014-05-05T17:50:00Z,29.2320,-94.4130,5.0,7.0,200.0,8.0,'1111122,1111122,1111122' 
NDBC,ioos:station:wmo:42035:1,2014-05-05T18:50:00Z,29.2320,-94.4130,5.0,6.0,200.0,7.0,'1111122,1111122,1111122' 
NDBC,ioos:station:wmo:42035:1,2014-05-05T20:50:00Z,29.2320,-94.4130,5.0,6.0,170.0,-9999.0,'1111122,1111122,1111122' 
NDBC,ioos:station:wmo:42035:1,2014-05-06T13:50:00Z,29.2320,-94.4130,5.0,8.0,170.0,-9999.0,'1111122,1111122,1111122' 
NDBC,ioos:station:wmo:42035:1,2014-05-06T14:50:00Z,29.2320,-94.4130,5.0,7.0,160.0,8.0,'1111122,1111122,1111122' 
NDBC,ioos:station:wmo:42035:1,2014-05-06T15:50:00Z,29.2320,-94.4130,5.0,7.0,160.0,8.0,'1111122,1111122,1111122' 
NDBC,ioos:station:wmo:42035:1,2014-05-06T21:50:00Z,29.2320,-94.4130,5.0,8.0,130.0,10.0,'1111122,1111122,1111122' 
NDBC,ioos:station:wmo:42035:1,2014-05-06T22:50:00Z,29.2320,-94.4130,5.0,8.0,130.0,10.0,'1111122,1111122,1111122' 
NDBC,ioos:station:wmo:42035:1,2014-05-06T23:50:00Z,29.2320,-94.4130,5.0,7.0,140.0,8.0,'1111122,1111122,1111122' 
NDBC,ioos:station:wmo:42035:1,2014-05-07T13:50:00Z,29.2320,-94.4130,5.0,6.0,150.0,-9999.0,'1111122,1111122,1111122' 
NDBC,ioos:station:wmo:42035:1,2014-05-07T14:50:00Z,29.2320,-94.4130,5.0,7.0,150.0,8.0,'1111122,1111122,1111122' 
NDBC,ioos:station:wmo:42035:1,2014-05-08T14:50:00Z,29.2320,-94.4130,5.0,9.0,140.0,-9999.0,'1111122,1111122,1111122' 
NDBC,ioos:station:wmo:42035:1,2014-05-09T13:50:00Z,29.2320,-94.4130,5.0,6.0,140.0,7.0,'1111122,1111122,1111122' 
NDBC,ioos:station:wmo:42035:1,2014-05-09T14:50:00Z,29.2320,-94.4130,5.0,6.0,130.0,7.0,'1111122,1111122,1111122' 
NDBC,ioos:station:wmo:42035:1,2014-05-09T15:50:00Z,29.2320,-94.4130,5.0,5.0,140.0,5.0,'1111122,1111122,1111122' 
NDBC,ioos:station:wmo:42035:1,2014-05-09T16:50:00Z,29.2320,-94.4130,5.0,5.0,150.0,5.0,'1111122,1111122,1111122' 
NDBC,ioos:station:wmo:42035:1,2014-05-09T17:50:00Z,29.2320,-94.4130,5.0,5.0,140.0,5.0,'1111122,1111122,1111122' 
NDBC,ioos:station:wmo:42035:1,2014-05-09T18:50:00Z,29.2320,-94.4130,5.0,4.0,160.0,4.0,'1111122,1111122,1111122' 
NDBC,ioos:station:wmo:42035:1,2014-05-09T19:50:00Z,29.2320,-94.4130,5.0,4.0,140.0,5.0,'1111122,1111122,1111122' 
NDBC,ioos:station:wmo:42035:1,2014-05-09T20:50:00Z,29.2320,-94.4130,5.0,5.0,150.0,6.0,'1111122,1111122,1111122' 
NDBC,ioos:station:wmo:42035:1,2014-05-09T21:50:00Z,29.2320,-94.4130,5.0,5.0,160.0,6.0,'1111122,1111122,1111122' 
NDBC,ioos:station:wmo:42035:1,2014-05-09T22:50:00Z,29.2320,-94.4130,5.0,9.0,150.0,11.0,'1111122,1111122,1111122' 
NDBC,ioos:station:wmo:42035:1,2014-05-09T23:50:00Z,29.2320,-94.4130,5.0,5.0,240.0,6.0,'1111122,1111122,1111122' 
NDBC,ioos:station:wmo:42035:1,2014-05-10T00:50:00Z,29.2320,-94.4130,5.0,9.0,300.0,10.0,'1111122,1111122,1111122' 
NDBC,ioos:station:wmo:42035:1,2014-05-10T01:50:00Z,29.2320,-94.4130,5.0,11.0,330.0,13.0,'1111122,1111122,1111122' 
NDBC,ioos:station:wmo:42035:1,2014-05-10T02:50:00Z,29.2320,-94.4130,5.0,5.0,350.0,6.0,'1111122,1111122,1111122' 
NDBC,ioos:station:wmo:42035:1,2014-05-10T03:50:00Z,29.2320,-94.4130,5.0,4.0,50.0,6.0,'1111122,1111122,1111122' 
NDBC,ioos:station:wmo:42035:1,2014-05-10T04:50:00Z,29.2320,-94.4130,5.0,6.0,120.0,8.0,'1111122,1111122,1111122' 
NDBC,ioos:station:wmo:42035:1,2014-05-10T05:50:00Z,29.2320,-94.4130,5.0,9.0,140.0,11.0,'1111122,1111122,1111122' 
NDBC,ioos:station:wmo:42035:1,2014-05-10T06:50:00Z,29.2320,-94.4130,5.0,11.0,120.0,12.0,'1111122,1111122,1111122' 
NDBC,ioos:station:wmo:42035:1,2014-05-10T07:50:00Z,29.2320,-94.4130,5.0,11.0,130.0,13.0,'1111122,1111122,1111122' 
NDBC,ioos:station:wmo:42035:1,2014-05-10T08:50:00Z,29.2320,-94.4130,5.0,11.0,130.0,13.0,'1111122,1111122,1111122' 
NDBC,ioos:station:wmo:42035:1,2014-05-10T09:50:00Z,29.2320,-94.4130,5.0,8.0,120.0,9.0,'1111122,1111122,1111122' 
NDBC,ioos:station:wmo:42035:1,2014-05-10T10:50:00Z,29.2320,-94.4130,5.0,7.0,130.0,9.0,'1111122,1111122,1111122' 
NDBC,ioos:station:wmo:42035:1,2014-05-10T11:50:00Z,29.2320,-94.4130,5.0,8.0,120.0,9.0,'1111122,1111122,1111122' 
NDBC,ioos:station:wmo:42035:1,2014-05-10T12:50:00Z,29.2320,-94.4130,5.0,7.0,100.0,8.0,'1111122,1111122,1111122' 
NDBC,ioos:station:wmo:42035:1,2014-05-10T13:50:00Z,29.2320,-94.4130,5.0,7.0,110.0,8.0,'1111122,1111122,1111122' 
NDBC,ioos:station:wmo:42035:1,2014-05-10T14:50:00Z,29.2320,-94.4130,5.0,9.0,110.0,10.0,'1111122,1111122,1111122' 
NDBC,ioos:station:wmo:42035:1,2014-05-10T15:50:00Z,29.2320,-94.4130,5.0,7.0,120.0,9.0,'1111122,1111122,1111122' 
NDBC,ioos:station:wmo:42035:1,2014-05-10T16:50:00Z,29.2320,-94.4130,5.0,6.0,120.0,7.0,'1111122,1111122,1111122' 
NDBC,ioos:station:wmo:42035:1,2014-05-10T17:50:00Z,29.2320,-94.4130,5.0,7.0,110.0,9.0,'1111122,1111122,1111122' 
NDBC,ioos:station:wmo:42035:1,2014-05-10T19:50:00Z,29.2320,-94.4130,5.0,6.0,110.0,-9999.0,'1111122,1111122,1111122' 
NDBC,ioos:station:wmo:42035:1,2014-05-10T20:50:00Z,29.2320,-94.4130,5.0,8.0,110.0,9.0,'1111122,1111122,1111122' 
NDBC,ioos:station:wmo:42035:1,2014-05-10T21:50:00Z,29.2320,-94.4130,5.0,8.0,120.0,9.0,'1111122,1111122,1111122' 
NDBC,ioos:station:wmo:42035:1,2014-05-10T22:50:00Z,29.2320,-94.4130,5.0,7.0,120.0,8.0,'1111122,1111122,1111122' 
NDBC,ioos:station:wmo:42035:1,2014-05-10T23:50:00Z,29.2320,-94.4130,5.0,6.0,120.0,-9999.0,'1111122,1111122,1111122' 
NDBC,ioos:station:wmo:42035:1,2014-05-11T13:50:00Z,29.2320,-94.4130,5.0,7.0,120.0,-9999.0,'1111122,1111122,1111122' 
NDBC,ioos:station:wmo:42035:1,2014-05-12T22:50:00Z,29.2320,-94.4130,5.0,10.0,140.0,12.0,'1111122,1111122,1111122' 
NDBC,ioos:station:wmo:42035:1,2014-05-12T23:50:00Z,29.2320,-94.4130,5.0,10.0,130.0,11.0,'1111122,1111122,1111122' 
NDBC,ioos:station:wmo:42035:1,2014-05-13T00:50:00Z,29.2320,-94.4130,5.0,10.0,130.0,12.0,'1111122,1111122,1111122' 
NDBC,ioos:station:wmo:42035:1,2014-05-13T01:50:00Z,29.2320,-94.4130,5.0,9.0,130.0,11.0,'1111122,1111122,1111122' 
NDBC,ioos:station:wmo:42035:1,2014-05-13T02:50:00Z,29.2320,-94.4130,5.0,9.0,130.0,11.0,'1111122,1111122,1111122' 
NDBC,ioos:station:wmo:42035:1,2014-05-13T03:50:00Z,29.2320,-94.4130,5.0,9.0,130.0,10.0,'1111122,1111122,1111122' 
NDBC,ioos:station:wmo:42035:1,2014-05-13T04:50:00Z,29.2320,-94.4130,5.0,9.0,140.0,11.0,'1111122,1111122,1111122' 
NDBC,ioos:station:wmo:42035:1,2014-05-13T06:50:00Z,29.2320,-94.4130,5.0,6.0,130.0,7.0,'1111122,1111122,1111122' 
NDBC,ioos:station:wmo:42035:1,2014-05-13T07:50:00Z,29.2320,-94.4130,5.0,6.0,140.0,7.0,'1111122,1111122,1111122' 
NDBC,ioos:station:wmo:42035:1,2014-05-13T08:50:00Z,29.2320,-94.4130,5.0,6.0,150.0,7.0,'1111122,1111122,1111122' 
NDBC,ioos:station:wmo:42035:1,2014-05-13T09:50:00Z,29.2320,-94.4130,5.0,2.0,120.0,3.0,'1111122,1111122,1111122' 
NDBC,ioos:station:wmo:42035:1,2014-05-13T10:50:00Z,29.2320,-94.4130,5.0,1.0,70.0,2.0,'1111122,1111122,1111122' 
NDBC,ioos:station:wmo:42035:1,2014-05-13T11:50:00Z,29.2320,-94.4130,5.0,1.0,30.0,-9999.0,'1111122,1111122,1111122' 
NDBC,ioos:station:wmo:42035:1,2014-05-13T12:00:00Z,29.2320,-94.4130,5.0,9.0,350.0,12.0,'1111122,1111122,1111122' 
NDBC,ioos:station:wmo:42035:1,2014-05-13T14:50:00Z,29.2320,-94.4130,5.0,11.0,10.0,13.0,'1111122,1111122,1111122' 
NDBC,ioos:station:wmo:42035:1,2014-05-13T15:50:00Z,29.2320,-94.4130,5.0,9.0,30.0,11.0,'1111122,1111122,1111122' 
NDBC,ioos:station:wmo:42035:1,2014-05-13T16:50:00Z,29.2320,-94.4130,5.0,9.0,60.0,10.0,'1111122,1111122,1111122' 
NDBC,ioos:station:wmo:42035:1,2014-05-13T17:50:00Z,29.2320,-94.4130,5.0,8.0,70.0,9.0,'1111122,1111122,1111122' 
NDBC,ioos:station:wmo:42035:1,2014-05-13T18:50:00Z,29.2320,-94.4130,5.0,5.0,50.0,6.0,'1111122,1111122,1111122' 
NDBC,ioos:station:wmo:42035:1,2014-05-13T19:50:00Z,29.2320,-94.4130,5.0,4.0,30.0,5.0,'1111122,1111122,1111122' 
NDBC,ioos:station:wmo:42035:1,2014-05-13T20:50:00Z,29.2320,-94.4130,5.0,3.0,40.0,4.0,'1111122,1111122,1111122' 
NDBC,ioos:station:wmo:42035:1,2014-05-13T21:50:00Z,29.2320,-94.4130,5.0,4.0,40.0,4.0,'1111122,1111122,1111122' 
NDBC,ioos:station:wmo:42035:1,2014-05-13T22:50:00Z,29.2320,-94.4130,5.0,5.0,50.0,6.0,'1111122,1111122,1111122' 
NDBC,ioos:station:wmo:42035:1,2014-05-13T23:50:00Z,29.2320,-94.4130,5.0,4.0,20.0,5.0,'1111122,1111122,1111122' 
NDBC,ioos:station:wmo:42035:1,2014-05-14T00:50:00Z,29.2320,-94.4130,5.0,8.0,350.0,11.0,'1111122,1111122,1111122' 
NDBC,ioos:station:wmo:42035:1,2014-05-14T01:50:00Z,29.2320,-94.4130,5.0,11.0,360.0,13.0,'1111122,1111122,1111122' 
NDBC,ioos:station:wmo:42035:1,2014-05-14T03:50:00Z,29.2320,-94.4130,5.0,10.0,360.0,12.0,'1111122,1111122,1111122' 
NDBC,ioos:station:wmo:42035:1,2014-05-14T04:50:00Z,29.2320,-94.4130,5.0,10.0,360.0,11.0,'1111122,1111122,1111122' 
NDBC,ioos:station:wmo:42035:1,2014-05-14T14:50:00Z,29.2320,-94.4130,5.0,13.0,360.0,-9999.0,'1111122,1111122,1111122' 
NDBC,ioos:station:wmo:42035:1,2014-05-14T15:50:00Z,29.2320,-94.4130,5.0,12.0,350.0,-9999.0,'1111122,1111122,1111122' 
NDBC,ioos:station:wmo:42035:1,2014-05-14T17:50:00Z,29.2320,-94.4130,5.0,11.0,340.0,14.0,'1111122,1111122,1111122' 
NDBC,ioos:station:wmo:42035:1,2014-05-14T22:50:00Z,29.2320,-94.4130,5.0,12.0,340.0,-9999.0,'1111122,1111122,1111122' 
NDBC,ioos:station:wmo:42035:1,2014-05-15T00:50:00Z,29.2320,-94.4130,5.0,13.0,350.0,-9999.0,'1111122,1111122,1111122' 
NDBC,ioos:station:wmo:42035:1,2014-05-15T01:50:00Z,29.2320,-94.4130,5.0,11.0,360.0,-9999.0,'1111122,1111122,1111122' 
NDBC,ioos:station:wmo:42035:1,2014-05-15T08:50:00Z,29.2320,-94.4130,5.0,8.0,20.0,9.0,'1111122,1111122,1111122' 
NDBC,ioos:station:wmo:42035:1,2014-05-15T11:50:00Z,29.2320,-94.4130,5.0,4.0,360.0,-9999.0,'1111122,1111122,1111122' 
NDBC,ioos:station:wmo:42035:1,2014-05-15T13:50:00Z,29.2320,-94.4130,5.0,3.0,340.0,4.0,'1111122,1111122,1111122' 
NDBC,ioos:station:wmo:42035:1,2014-05-15T14:50:00Z,29.2320,-94.4130,5.0,3.0,330.0,5.0,'1111122,1111122,1111122' 
NDBC,ioos:station:wmo:42035:1,2014-05-15T16:50:00Z,29.2320,-94.4130,5.0,2.0,290.0,3.0,'1111122,1111122,1111122' 
NDBC,ioos:station:wmo:42035:1,2014-05-15T18:50:00Z,29.2320,-94.4130,5.0,3.0,240.0,-9999.0,'1111122,1111122,1111122' 
NDBC,ioos:station:wmo:42035:1,2014-05-15T19:50:00Z,29.2320,-94.4130,5.0,2.0,250.0,4.0,'1111122,1111122,1111122' 
NDBC,ioos:station:wmo:42035:1,2014-05-15T21:50:00Z,29.2320,-94.4130,5.0,3.0,200.0,4.0,'1111122,1111122,1111122' 
NDBC,ioos:station:wmo:42035:1,2014-05-15T22:50:00Z,29.2320,-94.4130,5.0,4.0,210.0,6.0,'1111122,1111122,1111122' 
NDBC,ioos:station:wmo:42035:1,2014-05-16T00:50:00Z,29.2320,-94.4130,5.0,6.0,210.0,8.0,'1111122,1111122,1111122' 
NDBC,ioos:station:wmo:42035:1,2014-05-16T03:50:00Z,29.2320,-94.4130,5.0,7.0,210.0,-9999.0,'1111122,1111122,1111122' 
NDBC,ioos:station:wmo:42035:1,2014-05-16T06:50:00Z,29.2320,-94.4130,5.0,9.0,200.0,-9999.0,'1111122,1111122,1111122' 
NDBC,ioos:station:wmo:42035:1,2014-05-16T07:50:00Z,29.2320,-94.4130,5.0,9.0,200.0,-9999.0,'1111122,1111122,1111122' 
NDBC,ioos:station:wmo:42035:1,2014-05-16T08:50:00Z,29.2320,-94.4130,5.0,10.0,200.0,11.0,'1111122,1111122,1111122' 
NDBC,ioos:station:wmo:42035:1,2014-05-16T11:00:00Z,29.2320,-94.4130,5.0,9.0,210.0,-9999.0,'1111122,1111122,1111122' 
NDBC,ioos:station:wmo:42035:1,2014-05-16T12:50:00Z,29.2320,-94.4130,5.0,9.0,200.0,-9999.0,'1111122,1111122,1111122' 
NDBC,ioos:station:wmo:42035:1,2014-05-16T13:50:00Z,29.2320,-94.4130,5.0,9.0,210.0,11.0,'1111122,1111122,1111122' 
NDBC,ioos:station:wmo:42035:1,2014-05-16T18:50:00Z,29.2320,-94.4130,5.0,8.0,230.0,10.0,'1111122,1111122,1111122' 
NDBC,ioos:station:wmo:42035:1,2014-05-16T20:50:00Z,29.2320,-94.4130,5.0,8.0,220.0,-9999.0,'1111122,1111122,1111122' 
NDBC,ioos:station:wmo:42035:1,2014-05-17T03:50:00Z,29.2320,-94.4130,5.0,9.0,190.0,-9999.0,'1111122,1111122,1111122' 